sat.trackr.live / text

‹ back to catalog

STARLINK-4372

NORAD 53233 · 2022-084AW

PAYLOAD ACTIVE UNKNOWN

§ Identity

Operator
Country
US
Launch date
2022-07-22
Launch site
AFWTR
Launch vehicle
Mass (kg)
RCS (m²)

Purposes: comms

External: N2YO · Heavens-Above · Gunter

§ Orbital elements

Epoch: 2026-09-19T23:58:45.679584Z

Period
93.91 min
Inclination
97.2838°
Eccentricity
0.0001546
Mean motion
15.33436550 rev/d
Perigee alt
464.5 km
Apogee alt
466.6 km
Semi-major
6,843.7 km
B*
1.5174e-5
RAAN
317.7307°
Arg perigee
91.8291°
Mean anomaly
268.3129°
Rev number
22,861

§ Raw data

STARLINK-43721 53233U 22084AW  26262.99913981  .00000415  00000+0  15174-4 0  99902 53233  97.2838 317.7307 0001546  91.8291 268.3129 15.33436550228614

JSON: /api/v1/satellites/53233 · /tle

For live sub-satellite position, see the globe view (requires WebGL).

§ Visibility from observer

Set your observer location to see the next 7 days of passes ≥ 10°. The values pass through the URL so the page stays shareable.

No JS? Fill the form by hand. The geolocation button needs JavaScript.